Saturday, August 18, 2018, 1:59 PM GMT
Back to Local

CYHZ, Halifax International Airport

Location: , , Canada Lat: 44.883
Local Time: 1:59 PM GMT (13:59 GMT) Lon: -63.5
Time Zone: GMT Elev: 475 ft

Show me the last for .
Show Coded

Time T Td Feel RH Dir Speed Gust Alt SLP Vis Weather Sky Remarks
2018-08-18 13:00 64 61 - 88 160° 15 22 29.90 29.90 15 OVC021 None
2018-08-18 12:00 64 61 - 88 160° 13 23 29.91 29.91 15 BKN022 OVC140 None
2018-08-18 11:13 61 61 - 100 150° 12 - 29.93 29.93 12 SCT003 OVC032 None
2018-08-18 11:00 61 61 - 100 160° 9 - 29.93 29.94 10 BKN002 OVC031 None
2018-08-18 10:52 61 61 - 100 160° 10 - 29.93 29.94 10 OVC002 None
2018-08-18 10:36 61 61 - 100 160° 10 - 29.94 29.94 0 BR VV001 None
2018-08-18 10:00 59 59 - 100 160° 9 - 29.94 29.95 0 FG VV001 Pressure falling rapidly
2018-08-18 09:16 57 57 - 100 150° 8 - 29.95 29.96 0 FG VV001 None
2018-08-18 09:00 57 57 - 100 150° 7 - 29.96 29.96 0 FG BKN001 OVC050 None
2018-08-18 08:57 57 57 - 100 150° 6 - 29.96 29.96 0 FG BKN001 OVC050 None
2018-08-18 08:43 57 57 - 100 170° 8 - 29.97 29.97 1 BR BKN001 OVC050 None
2018-08-18 08:37 57 57 - 100 180° 7 - 29.97 29.97 2 BR BKN002 OVC055 None
2018-08-18 08:20 57 57 - 100 170° 8 - 29.96 29.97 10 FEW002 SCT055 BKN120 BKN260 None
2018-08-18 08:00 57 57 - 100 160° 7 - 29.97 29.97 15 SCT260 None
2018-08-18 07:00 57 57 - 100 180° 8 - 29.99 29.99 15 FEW260 None
2018-08-18 06:00 59 57 - 93 210° 9 - 30.01 30.01 15 FEW034 SCT260 None
2018-08-18 05:00 59 55 - 87 200° 8 - 30.02 30.03 15 FEW036 SCT240 None
2018-08-18 04:00 59 55 - 87 210° 9 - 30.03 30.04 15 FEW040 SCT210 None
2018-08-18 03:00 59 55 - 87 210° 9 - 30.03 30.03 15 FEW040 SCT260 None
2018-08-18 02:00 61 57 - 87 210° 8 - 30.04 30.05 15 FEW042 SCT250 None
2018-08-18 01:00 61 57 - 87 220° 8 - 30.06 30.06 15 SCT250 None
2018-08-18 00:00 63 57 - 82 230° 7 - 30.05 30.06 15 FEW036 SCT250 None
2018-08-17 23:00 66 57 - 72 Variable 6 - 30.03 30.04 15 FEW038 BKN250 None
2018-08-17 22:00 72 54 76 53 350° 3 - 30.04 30.04 15 FEW041 BKN250 None
2018-08-17 21:00 72 55 76 56 320° 7 - 30.05 30.05 15 BKN046 BKN250 None
2018-08-17 20:00 72 54 76 53 320° 10 - 30.04 30.05 15 BKN048 BKN240 None
2018-08-17 19:00 72 55 76 56 350° 7 - 30.05 30.05 15 BKN049 None
2018-08-17 18:00 70 55 - 60 360° 5 - 30.06 30.07 15 SCT040 BKN250 None
2018-08-17 17:00 68 55 - 64 10° 7 - 30.08 30.08 15 BKN035 BKN250 None
2018-08-17 16:00 68 55 - 64 330° 5 - 30.09 30.09 15 BKN031 BKN250 None
2018-08-17 15:00 68 55 - 64 320° 9 - 30.09 30.10 15 BKN026 BKN250 None
2018-08-17 14:00 66 55 - 68 340° 8 - 30.10 30.11 15 BKN021 BKN250 None

Support USWX by starting your Amazon purchase here.